iso_date,Year,Hour,Min,DOY,POS_DOY,Lat,Lon,BP,Ts,Ta,has_bp,has_ts,has_ta,BuoyID,Buoy_Type,Buoy_Owner,Logistics,Hemisphere
2021-08-20T21:46:56Z,2021,21,47,232.9076,230.0639,82.7074,-99.4668,1006.3,1.3,5.0,yes,yes,yes,300234068766730,SVP-BA,ECCC,RCAF,North
2021-08-20T22:00:02Z,2021,22,0,232.9167,230.0729,82.7074,-99.4668,1006.5,1.1,3.6,yes,yes,yes,300234068766730,SVP-BA,ECCC,RCAF,North
2021-08-20T22:59:57Z,2021,23,0,232.9583,230.1146,82.7074,-99.4668,1006.7,1.0,1.8,yes,yes,yes,300234068766730,SVP-BA,ECCC,RCAF,North
2021-08-21T00:00:00Z,2021,0,0,233.0,233.0,82.7094,-99.4626,1006.6,1.0,1.3,yes,yes,yes,300234068766730,SVP-BA,ECCC,RCAF,North
2021-08-21T01:00:02Z,2021,1,0,233.0417,233.0,82.7094,-99.4626,1006.5,0.9,0.8,yes,yes,yes,300234068766730,SVP-BA,ECCC,RCAF,North
2021-08-21T01:59:57Z,2021,2,0,233.0833,233.0,82.7094,-99.4626,1006.6,0.8,0.5,yes,yes,yes,300234068766730,SVP-BA,ECCC,RCAF,North
2021-08-21T03:00:00Z,2021,3,0,233.125,233.125,82.7104,-99.4612,1006.4,0.8,0.4,yes,yes,yes,300234068766730,SVP-BA,ECCC,RCAF,North
2021-08-21T04:00:02Z,2021,4,0,233.1667,233.125,82.7104,-99.4612,1006.5,0.7,0.4,yes,yes,yes,300234068766730,SVP-BA,ECCC,RCAF,North
2021-08-21T04:59:57Z,2021,5,0,233.2083,233.125,82.7104,-99.4612,1006.5,0.7,0.4,yes,yes,yes,300234068766730,SVP-BA,ECCC,RCAF,North
2021-08-21T06:00:00Z,2021,6,0,233.25,233.25,82.7118,-99.4612,1006.5,0.6,0.3,yes,yes,yes,300234068766730,SVP-BA,ECCC,RCAF,North
2021-08-21T07:00:02Z,2021,7,0,233.2917,233.25,82.7118,-99.4612,1006.8,0.6,0.2,yes,yes,yes,300234068766730,SVP-BA,ECCC,RCAF,North
2021-08-21T07:59:57Z,2021,8,0,233.3333,233.25,82.7118,-99.4612,1007.0,0.6,0.0,yes,yes,yes,300234068766730,SVP-BA,ECCC,RCAF,North
2021-08-21T09:00:00Z,2021,9,0,233.375,233.375,82.7132,-99.455,1007.2,0.6,-0.1,yes,yes,yes,300234068766730,SVP-BA,ECCC,RCAF,North
2021-08-21T10:00:02Z,2021,10,0,233.4167,233.375,82.7132,-99.455,1007.4,0.6,-0.3,yes,yes,yes,300234068766730,SVP-BA,ECCC,RCAF,North
2021-08-21T10:59:57Z,2021,11,0,233.4583,233.375,82.7132,-99.455,1007.7,0.6,-0.2,yes,yes,yes,300234068766730,SVP-BA,ECCC,RCAF,North
2021-08-21T12:00:00Z,2021,12,0,233.5,233.5,82.7162,-99.452,1007.8,0.6,-0.2,yes,yes,yes,300234068766730,SVP-BA,ECCC,RCAF,North
2021-08-21T13:00:02Z,2021,13,0,233.5417,233.5,82.7162,-99.452,1008.2,0.6,-0.4,yes,yes,yes,300234068766730,SVP-BA,ECCC,RCAF,North
2021-08-21T13:59:57Z,2021,14,0,233.5833,233.5,82.7162,-99.452,1008.5,0.6,-0.7,yes,yes,yes,300234068766730,SVP-BA,ECCC,RCAF,North
2021-08-21T15:00:00Z,2021,15,0,233.625,233.625,82.7218,-99.4318,1008.7,0.6,-0.8,yes,yes,yes,300234068766730,SVP-BA,ECCC,RCAF,North
2021-08-21T16:00:02Z,2021,16,0,233.6667,233.625,82.7218,-99.4318,1008.9,0.6,-0.7,yes,yes,yes,300234068766730,SVP-BA,ECCC,RCAF,North
2021-08-21T16:59:57Z,2021,17,0,233.7083,233.625,82.7218,-99.4318,1009.1,0.6,-0.6,yes,yes,yes,300234068766730,SVP-BA,ECCC,RCAF,North
2021-08-21T18:00:00Z,2021,18,0,233.75,233.75,82.7278,-99.3928,1009.3,0.5,-0.4,yes,yes,yes,300234068766730,SVP-BA,ECCC,RCAF,North
2021-08-21T19:00:02Z,2021,19,0,233.7917,233.75,82.7278,-99.3928,1009.6,0.6,-0.2,yes,yes,yes,300234068766730,SVP-BA,ECCC,RCAF,North
2021-08-21T19:59:57Z,2021,20,0,233.8333,233.75,82.7278,-99.3928,1010.0,0.6,-0.5,yes,yes,yes,300234068766730,SVP-BA,ECCC,RCAF,North
2021-08-21T21:00:00Z,2021,21,0,233.875,233.875,82.735,-99.342,1010.2,0.6,-0.8,yes,yes,yes,300234068766730,SVP-BA,ECCC,RCAF,North
2021-08-21T22:00:02Z,2021,22,0,233.9167,233.875,82.735,-99.342,1010.4,0.6,-0.8,yes,yes,yes,300234068766730,SVP-BA,ECCC,RCAF,North
2021-08-21T22:59:57Z,2021,23,0,233.9583,233.875,82.735,-99.342,1010.5,0.5,-0.7,yes,yes,yes,300234068766730,SVP-BA,ECCC,RCAF,North
2021-08-22T00:00:00Z,2021,0,0,234.0,234.0,82.7418,-99.2942,1010.6,0.6,-0.8,yes,yes,yes,300234068766730,SVP-BA,ECCC,RCAF,North
2021-08-22T01:00:02Z,2021,1,0,234.0417,234.0,82.7418,-99.2942,1010.4,0.5,-0.7,yes,yes,yes,300234068766730,SVP-BA,ECCC,RCAF,North
2021-08-22T01:59:57Z,2021,2,0,234.0833,234.0,82.7418,-99.2942,1010.3,0.5,-0.8,yes,yes,yes,300234068766730,SVP-BA,ECCC,RCAF,North
2021-08-22T03:00:00Z,2021,3,0,234.125,234.125,82.7482,-99.2668,1010.0,0.5,-0.8,yes,yes,yes,300234068766730,SVP-BA,ECCC,RCAF,North
2021-08-22T04:00:02Z,2021,4,0,234.1667,234.125,82.7482,-99.2668,1009.7,0.5,-0.7,yes,yes,yes,300234068766730,SVP-BA,ECCC,RCAF,North
2021-08-22T04:59:57Z,2021,5,0,234.2083,234.125,82.7482,-99.2668,1009.4,0.5,-1.0,yes,yes,yes,300234068766730,SVP-BA,ECCC,RCAF,North
2021-08-22T06:00:00Z,2021,6,0,234.25,234.25,82.7546,-99.2612,1008.8,0.5,-0.7,yes,yes,yes,300234068766730,SVP-BA,ECCC,RCAF,North
2021-08-22T07:00:02Z,2021,7,0,234.2917,234.25,82.7546,-99.2612,1008.6,0.4,-0.5,yes,yes,yes,300234068766730,SVP-BA,ECCC,RCAF,North
2021-08-22T07:59:57Z,2021,8,0,234.3333,234.25,82.7546,-99.2612,1008.5,0.4,-0.4,yes,yes,yes,300234068766730,SVP-BA,ECCC,RCAF,North
2021-08-22T09:00:00Z,2021,9,0,234.375,234.375,82.7616,-99.2436,1008.3,0.4,-0.1,yes,yes,yes,300234068766730,SVP-BA,ECCC,RCAF,North
2021-08-22T10:00:02Z,2021,10,0,234.4167,234.375,82.7616,-99.2436,1008.0,0.4,0.2,yes,yes,yes,300234068766730,SVP-BA,ECCC,RCAF,North
2021-08-22T10:59:57Z,2021,11,0,234.4583,234.375,82.7616,-99.2436,1007.4,0.4,0.5,yes,yes,yes,300234068766730,SVP-BA,ECCC,RCAF,North
2021-08-22T12:00:00Z,2021,12,0,234.5,234.5,82.7726,-99.2192,1007.1,0.4,0.6,yes,yes,yes,300234068766730,SVP-BA,ECCC,RCAF,North
2021-08-22T13:00:02Z,2021,13,0,234.5417,234.5,82.7726,-99.2192,1006.7,0.4,0.8,yes,yes,yes,300234068766730,SVP-BA,ECCC,RCAF,North
2021-08-22T13:59:57Z,2021,14,0,234.5833,234.5,82.7726,-99.2192,1006.4,0.5,1.0,yes,yes,yes,300234068766730,SVP-BA,ECCC,RCAF,North
2021-08-22T15:00:00Z,2021,15,0,234.625,234.625,82.7856,-99.1926,1006.2,0.5,1.1,yes,yes,yes,300234068766730,SVP-BA,ECCC,RCAF,North
2021-08-22T16:00:02Z,2021,16,0,234.6667,234.625,82.7856,-99.1926,1006.6,0.5,1.4,yes,yes,yes,300234068766730,SVP-BA,ECCC,RCAF,North
2021-08-22T16:59:57Z,2021,17,0,234.7083,234.625,82.7856,-99.1926,1006.9,0.5,1.6,yes,yes,yes,300234068766730,SVP-BA,ECCC,RCAF,North
2021-08-22T18:00:00Z,2021,18,0,234.75,234.75,82.793,-99.114,1007.4,0.5,1.0,yes,yes,yes,300234068766730,SVP-BA,ECCC,RCAF,North
2021-08-22T19:00:02Z,2021,19,0,234.7917,234.75,82.793,-99.114,1007.9,0.6,1.2,yes,yes,yes,300234068766730,SVP-BA,ECCC,RCAF,North
2021-08-22T19:59:57Z,2021,20,0,234.8333,234.75,82.793,-99.114,1008.4,0.6,1.1,yes,yes,yes,300234068766730,SVP-BA,ECCC,RCAF,North
2021-08-22T21:00:00Z,2021,21,0,234.875,234.875,82.7944,-99.0178,1008.8,0.6,1.2,yes,yes,yes,300234068766730,SVP-BA,ECCC,RCAF,North
2021-08-22T22:00:02Z,2021,22,0,234.9167,234.875,82.7944,-99.0178,1009.0,0.6,1.5,yes,yes,yes,300234068766730,SVP-BA,ECCC,RCAF,North
2021-08-22T22:59:57Z,2021,23,0,234.9583,234.875,82.7944,-99.0178,1009.5,0.6,1.3,yes,yes,yes,300234068766730,SVP-BA,ECCC,RCAF,North
2021-08-23T00:00:00Z,2021,0,0,235.0,235.0,82.803,-98.9316,1010.0,0.6,1.2,yes,yes,yes,300234068766730,SVP-BA,ECCC,RCAF,North
2021-08-23T01:00:02Z,2021,1,0,235.0417,235.0,82.803,-98.9316,1010.5,0.6,0.9,yes,yes,yes,300234068766730,SVP-BA,ECCC,RCAF,North
2021-08-23T01:59:57Z,2021,2,0,235.0833,235.0,82.803,-98.9316,1010.5,0.6,1.0,yes,yes,yes,300234068766730,SVP-BA,ECCC,RCAF,North
2021-08-23T03:00:00Z,2021,3,0,235.125,235.125,82.8196,-98.8016,1010.6,0.6,1.1,yes,yes,yes,300234068766730,SVP-BA,ECCC,RCAF,North
2021-08-23T04:00:02Z,2021,4,0,235.1667,235.125,82.8196,-98.8016,1010.4,0.5,1.1,yes,yes,yes,300234068766730,SVP-BA,ECCC,RCAF,North
2021-08-23T04:59:57Z,2021,5,0,235.2083,235.125,82.8196,-98.8016,1010.3,0.5,1.0,yes,yes,yes,300234068766730,SVP-BA,ECCC,RCAF,North
2021-08-23T06:00:00Z,2021,6,0,235.25,235.25,82.832,-98.6812,1010.2,0.5,1.1,yes,yes,yes,300234068766730,SVP-BA,ECCC,RCAF,North
2021-08-23T07:00:02Z,2021,7,0,235.2917,235.25,82.832,-98.6812,1010.1,0.5,1.2,yes,yes,yes,300234068766730,SVP-BA,ECCC,RCAF,North
2021-08-23T07:59:57Z,2021,8,0,235.3333,235.25,82.832,-98.6812,1009.9,0.4,1.1,yes,yes,yes,300234068766730,SVP-BA,ECCC,RCAF,North
2021-08-23T09:00:00Z,2021,9,0,235.375,235.375,82.8456,-98.634,1009.8,0.4,1.2,yes,yes,yes,300234068766730,SVP-BA,ECCC,RCAF,North
2021-08-23T10:00:02Z,2021,10,0,235.4167,235.375,82.8456,-98.634,1009.5,0.4,1.0,yes,yes,yes,300234068766730,SVP-BA,ECCC,RCAF,North
2021-08-23T10:59:57Z,2021,11,0,235.4583,235.375,82.8456,-98.634,1009.4,0.4,1.1,yes,yes,yes,300234068766730,SVP-BA,ECCC,RCAF,North
2021-08-23T12:00:00Z,2021,12,0,235.5,235.5,82.8644,-98.6124,1009.2,0.4,1.2,yes,yes,yes,300234068766730,SVP-BA,ECCC,RCAF,North
2021-08-23T13:00:02Z,2021,13,0,235.5417,235.5,82.8644,-98.6124,1008.9,0.5,1.2,yes,yes,yes,300234068766730,SVP-BA,ECCC,RCAF,North
2021-08-23T13:59:57Z,2021,14,0,235.5833,235.5,82.8644,-98.6124,1008.6,0.5,1.4,yes,yes,yes,300234068766730,SVP-BA,ECCC,RCAF,North
2021-08-23T15:00:00Z,2021,15,0,235.625,235.625,82.8844,-98.5786,1008.3,0.5,1.5,yes,yes,yes,300234068766730,SVP-BA,ECCC,RCAF,North
2021-08-23T16:00:02Z,2021,16,0,235.6667,235.625,82.8844,-98.5786,1008.2,0.5,1.5,yes,yes,yes,300234068766730,SVP-BA,ECCC,RCAF,North
2021-08-23T16:59:57Z,2021,17,0,235.7083,235.625,82.8844,-98.5786,1008.1,0.5,1.7,yes,yes,yes,300234068766730,SVP-BA,ECCC,RCAF,North
2021-08-23T18:00:00Z,2021,18,0,235.75,235.75,82.8984,-98.5452,1008.0,0.4,1.4,yes,yes,yes,300234068766730,SVP-BA,ECCC,RCAF,North
2021-08-23T19:00:02Z,2021,19,0,235.7917,235.75,82.8984,-98.5452,1007.7,0.4,1.6,yes,yes,yes,300234068766730,SVP-BA,ECCC,RCAF,North
2021-08-23T19:59:57Z,2021,20,0,235.8333,235.75,82.8984,-98.5452,1007.5,0.5,1.5,yes,yes,yes,300234068766730,SVP-BA,ECCC,RCAF,North
2021-08-23T21:00:00Z,2021,21,0,235.875,235.875,82.9102,-98.5188,1007.5,0.5,1.4,yes,yes,yes,300234068766730,SVP-BA,ECCC,RCAF,North
2021-08-23T22:00:02Z,2021,22,0,235.9167,235.875,82.9102,-98.5188,1007.5,0.5,1.4,yes,yes,yes,300234068766730,SVP-BA,ECCC,RCAF,North
2021-08-23T22:59:57Z,2021,23,0,235.9583,235.875,82.9102,-98.5188,1007.3,0.4,1.2,yes,yes,yes,300234068766730,SVP-BA,ECCC,RCAF,North
2021-08-24T00:00:00Z,2021,0,0,236.0,236.0,82.9234,-98.4872,1007.1,0.4,1.0,yes,yes,yes,300234068766730,SVP-BA,ECCC,RCAF,North
2021-08-24T01:00:02Z,2021,1,0,236.0417,236.0,82.9234,-98.4872,1007.0,0.4,0.9,yes,yes,yes,300234068766730,SVP-BA,ECCC,RCAF,North
2021-08-24T01:59:57Z,2021,2,0,236.0833,236.0,82.9234,-98.4872,1006.7,0.4,0.9,yes,yes,yes,300234068766730,SVP-BA,ECCC,RCAF,North
2021-08-24T03:00:00Z,2021,3,0,236.125,236.125,82.9392,-98.4556,1006.7,0.4,0.9,yes,yes,yes,300234068766730,SVP-BA,ECCC,RCAF,North
2021-08-24T04:00:02Z,2021,4,0,236.1667,236.125,82.9392,-98.4556,1006.7,0.4,0.8,yes,yes,yes,300234068766730,SVP-BA,ECCC,RCAF,North
2021-08-24T04:59:57Z,2021,5,0,236.2083,236.125,82.9392,-98.4556,1006.7,0.4,0.7,yes,yes,yes,300234068766730,SVP-BA,ECCC,RCAF,North
2021-08-24T06:00:00Z,2021,6,0,236.25,236.25,82.9504,-98.4238,1006.8,0.4,0.7,yes,yes,yes,300234068766730,SVP-BA,ECCC,RCAF,North
2021-08-24T07:00:02Z,2021,7,0,236.2917,236.25,82.9504,-98.4238,1006.7,0.4,0.8,yes,yes,yes,300234068766730,SVP-BA,ECCC,RCAF,North
2021-08-24T07:59:57Z,2021,8,0,236.3333,236.25,82.9504,-98.4238,1006.8,0.4,0.8,yes,yes,yes,300234068766730,SVP-BA,ECCC,RCAF,North
2021-08-24T09:00:00Z,2021,9,0,236.375,236.375,82.955,-98.4094,1006.6,0.4,0.9,yes,yes,yes,300234068766730,SVP-BA,ECCC,RCAF,North
2021-08-24T10:00:02Z,2021,10,0,236.4167,236.375,82.955,-98.4094,1006.5,0.4,1.1,yes,yes,yes,300234068766730,SVP-BA,ECCC,RCAF,North
2021-08-24T10:59:57Z,2021,11,0,236.4583,236.375,82.955,-98.4094,1006.4,0.4,1.1,yes,yes,yes,300234068766730,SVP-BA,ECCC,RCAF,North
2021-08-24T12:00:00Z,2021,12,0,236.5,236.5,82.9612,-98.4102,1006.3,0.4,1.2,yes,yes,yes,300234068766730,SVP-BA,ECCC,RCAF,North
2021-08-24T13:00:02Z,2021,13,0,236.5417,236.5,82.9612,-98.4102,1005.9,0.4,1.1,yes,yes,yes,300234068766730,SVP-BA,ECCC,RCAF,North
2021-08-24T13:59:57Z,2021,14,0,236.5833,236.5,82.9612,-98.4102,1005.4,0.4,1.5,yes,yes,yes,300234068766730,SVP-BA,ECCC,RCAF,North
2021-08-24T15:00:00Z,2021,15,0,236.625,236.625,82.971,-98.43,1005.0,0.5,1.6,yes,yes,yes,300234068766730,SVP-BA,ECCC,RCAF,North
2021-08-24T16:00:02Z,2021,16,0,236.6667,236.625,82.971,-98.43,1004.4,0.5,1.6,yes,yes,yes,300234068766730,SVP-BA,ECCC,RCAF,North
2021-08-24T16:59:57Z,2021,17,0,236.7083,236.625,82.971,-98.43,1004.1,0.5,1.9,yes,yes,yes,300234068766730,SVP-BA,ECCC,RCAF,North
2021-08-24T18:00:00Z,2021,18,0,236.75,236.75,82.9808,-98.4338,1003.8,0.5,1.8,yes,yes,yes,300234068766730,SVP-BA,ECCC,RCAF,North
2021-08-24T19:00:02Z,2021,19,0,236.7917,236.75,82.9808,-98.4338,1003.5,0.5,1.2,yes,yes,yes,300234068766730,SVP-BA,ECCC,RCAF,North
2021-08-24T19:59:57Z,2021,20,0,236.8333,236.75,82.9808,-98.4338,1003.2,0.5,1.1,yes,yes,yes,300234068766730,SVP-BA,ECCC,RCAF,North
2021-08-24T21:00:00Z,2021,21,0,236.875,236.875,82.9864,-98.4088,1002.8,0.6,1.2,yes,yes,yes,300234068766730,SVP-BA,ECCC,RCAF,North
2021-08-24T22:00:02Z,2021,22,0,236.9167,236.875,82.9864,-98.4088,1002.5,0.5,1.4,yes,yes,yes,300234068766730,SVP-BA,ECCC,RCAF,North
2021-08-24T22:59:57Z,2021,23,0,236.9583,236.875,82.9864,-98.4088,1002.1,0.5,1.4,yes,yes,yes,300234068766730,SVP-BA,ECCC,RCAF,North
2021-08-25T00:00:00Z,2021,0,0,237.0,237.0,82.9882,-98.3956,1001.8,0.6,1.4,yes,yes,yes,300234068766730,SVP-BA,ECCC,RCAF,North
2021-08-25T01:00:02Z,2021,1,0,237.0417,237.0,82.9882,-98.3956,1001.6,0.5,1.0,yes,yes,yes,300234068766730,SVP-BA,ECCC,RCAF,North
2021-08-25T01:59:57Z,2021,2,0,237.0833,237.0,82.9882,-98.3956,1001.4,0.5,1.0,yes,yes,yes,300234068766730,SVP-BA,ECCC,RCAF,North
2021-08-25T03:00:00Z,2021,3,0,237.125,237.125,82.9906,-98.3884,1001.3,0.5,0.5,yes,yes,yes,300234068766730,SVP-BA,ECCC,RCAF,North
2021-08-25T04:00:02Z,2021,4,0,237.1667,237.125,82.9906,-98.3884,1001.4,0.5,0.5,yes,yes,yes,300234068766730,SVP-BA,ECCC,RCAF,North
2021-08-25T04:59:57Z,2021,5,0,237.2083,237.125,82.9906,-98.3884,1001.4,0.5,0.6,yes,yes,yes,300234068766730,SVP-BA,ECCC,RCAF,North
2021-08-25T06:00:00Z,2021,6,0,237.25,237.25,82.9926,-98.3556,1001.4,0.5,0.5,yes,yes,yes,300234068766730,SVP-BA,ECCC,RCAF,North
2021-08-25T07:00:02Z,2021,7,0,237.2917,237.25,82.9926,-98.3556,1001.7,0.4,0.5,yes,yes,yes,300234068766730,SVP-BA,ECCC,RCAF,North
2021-08-25T07:59:57Z,2021,8,0,237.3333,237.25,82.9926,-98.3556,1001.7,0.4,-1.9,yes,yes,yes,300234068766730,SVP-BA,ECCC,RCAF,North
2021-08-25T09:00:00Z,2021,9,0,237.375,237.375,82.9904,-98.313,1001.8,0.5,-3.1,yes,yes,yes,300234068766730,SVP-BA,ECCC,RCAF,North
2021-08-25T10:00:02Z,2021,10,0,237.4167,237.375,82.9904,-98.313,1002.1,0.5,-2.6,yes,yes,yes,300234068766730,SVP-BA,ECCC,RCAF,North
2021-08-25T10:59:57Z,2021,11,0,237.4583,237.375,82.9904,-98.313,1002.0,0.5,-2.1,yes,yes,yes,300234068766730,SVP-BA,ECCC,RCAF,North
2021-08-25T12:00:00Z,2021,12,0,237.5,237.5,82.9896,-98.3004,1002.2,0.5,-0.8,yes,yes,yes,300234068766730,SVP-BA,ECCC,RCAF,North
2021-08-25T13:00:02Z,2021,13,0,237.5417,237.5,82.9896,-98.3004,1002.3,0.5,-0.6,yes,yes,yes,300234068766730,SVP-BA,ECCC,RCAF,North
2021-08-25T13:59:57Z,2021,14,0,237.5833,237.5,82.9896,-98.3004,1002.3,0.5,-0.9,yes,yes,yes,300234068766730,SVP-BA,ECCC,RCAF,North
2021-08-25T15:00:00Z,2021,15,0,237.625,237.625,82.9924,-98.2954,1002.4,0.5,-0.4,yes,yes,yes,300234068766730,SVP-BA,ECCC,RCAF,North
2021-08-25T16:00:02Z,2021,16,0,237.6667,237.625,82.9924,-98.2954,1002.4,0.5,-0.4,yes,yes,yes,300234068766730,SVP-BA,ECCC,RCAF,North
2021-08-25T16:59:57Z,2021,17,0,237.7083,237.625,82.9924,-98.2954,1002.5,0.6,0.0,yes,yes,yes,300234068766730,SVP-BA,ECCC,RCAF,North
2021-08-25T18:00:00Z,2021,18,0,237.75,237.75,82.994,-98.2766,1002.7,0.5,-0.4,yes,yes,yes,300234068766730,SVP-BA,ECCC,RCAF,North
2021-08-25T19:00:02Z,2021,19,0,237.7917,237.75,82.994,-98.2766,1002.8,0.5,-0.8,yes,yes,yes,300234068766730,SVP-BA,ECCC,RCAF,North
2021-08-25T19:59:57Z,2021,20,0,237.8333,237.75,82.994,-98.2766,1003.0,0.5,-0.8,yes,yes,yes,300234068766730,SVP-BA,ECCC,RCAF,North
2021-08-25T21:00:00Z,2021,21,0,237.875,237.875,82.9926,-98.2628,1003.2,0.5,-0.7,yes,yes,yes,300234068766730,SVP-BA,ECCC,RCAF,North
2021-08-25T22:00:02Z,2021,22,0,237.9167,237.875,82.9926,-98.2628,1003.2,0.6,-0.1,yes,yes,yes,300234068766730,SVP-BA,ECCC,RCAF,North
2021-08-25T22:59:57Z,2021,23,0,237.9583,237.875,82.9926,-98.2628,1003.4,0.5,-0.9,yes,yes,yes,300234068766730,SVP-BA,ECCC,RCAF,North
2021-08-26T00:00:00Z,2021,0,0,238.0,238.0,82.9916,-98.26,1003.7,0.5,-0.5,yes,yes,yes,300234068766730,SVP-BA,ECCC,RCAF,North
2021-08-26T01:00:02Z,2021,1,0,238.0417,238.0,82.9916,-98.26,1003.7,0.5,-1.0,yes,yes,yes,300234068766730,SVP-BA,ECCC,RCAF,North
2021-08-26T01:59:57Z,2021,2,0,238.0833,238.0,82.9916,-98.26,1003.8,0.5,-0.9,yes,yes,yes,300234068766730,SVP-BA,ECCC,RCAF,North
2021-08-26T03:00:00Z,2021,3,0,238.125,238.125,82.992,-98.2576,1003.9,0.4,-1.1,yes,yes,yes,300234068766730,SVP-BA,ECCC,RCAF,North
2021-08-26T04:00:02Z,2021,4,0,238.1667,238.125,82.992,-98.2576,1004.2,0.4,-1.6,yes,yes,yes,300234068766730,SVP-BA,ECCC,RCAF,North
2021-08-26T04:59:57Z,2021,5,0,238.2083,238.125,82.992,-98.2576,1004.3,0.5,-2.0,yes,yes,yes,300234068766730,SVP-BA,ECCC,RCAF,North
2021-08-26T06:00:00Z,2021,6,0,238.25,238.25,82.9918,-98.253,1004.8,0.4,-1.5,yes,yes,yes,300234068766730,SVP-BA,ECCC,RCAF,North
2021-08-26T07:00:02Z,2021,7,0,238.2917,238.25,82.9918,-98.253,1005.4,0.4,-1.3,yes,yes,yes,300234068766730,SVP-BA,ECCC,RCAF,North
2021-08-26T07:59:57Z,2021,8,0,238.3333,238.25,82.9918,-98.253,1005.8,0.4,-1.3,yes,yes,yes,300234068766730,SVP-BA,ECCC,RCAF,North
2021-08-26T09:00:00Z,2021,9,0,238.375,238.375,82.99,-98.2358,1006.2,0.4,-1.0,yes,yes,yes,300234068766730,SVP-BA,ECCC,RCAF,North
2021-08-26T10:00:02Z,2021,10,0,238.4167,238.375,82.99,-98.2358,1006.5,0.4,-0.6,yes,yes,yes,300234068766730,SVP-BA,ECCC,RCAF,North
2021-08-26T10:59:57Z,2021,11,0,238.4583,238.375,82.99,-98.2358,1007.0,0.4,-1.0,yes,yes,yes,300234068766730,SVP-BA,ECCC,RCAF,North
2021-08-26T12:00:00Z,2021,12,0,238.5,238.5,82.9888,-98.2156,1007.5,0.4,-1.3,yes,yes,yes,300234068766730,SVP-BA,ECCC,RCAF,North
2021-08-26T13:00:02Z,2021,13,0,238.5417,238.5,82.9888,-98.2156,1007.9,0.4,-1.3,yes,yes,yes,300234068766730,SVP-BA,ECCC,RCAF,North
2021-08-26T13:59:57Z,2021,14,0,238.5833,238.5,82.9888,-98.2156,1008.4,0.4,-1.4,yes,yes,yes,300234068766730,SVP-BA,ECCC,RCAF,North
2021-08-26T15:00:00Z,2021,15,0,238.625,238.625,82.991,-98.2074,1008.7,0.4,-1.5,yes,yes,yes,300234068766730,SVP-BA,ECCC,RCAF,North
2021-08-26T16:00:02Z,2021,16,0,238.6667,238.625,82.991,-98.2074,1009.0,0.5,-1.5,yes,yes,yes,300234068766730,SVP-BA,ECCC,RCAF,North
2021-08-26T16:59:57Z,2021,17,0,238.7083,238.625,82.991,-98.2074,1009.4,0.5,-0.9,yes,yes,yes,300234068766730,SVP-BA,ECCC,RCAF,North
2021-08-26T18:00:00Z,2021,18,0,238.75,238.75,82.995,-98.18,1009.9,0.5,-1.2,yes,yes,yes,300234068766730,SVP-BA,ECCC,RCAF,North
2021-08-26T19:00:02Z,2021,19,0,238.7917,238.75,82.995,-98.18,1010.3,0.5,-0.8,yes,yes,yes,300234068766730,SVP-BA,ECCC,RCAF,North
2021-08-26T19:59:57Z,2021,20,0,238.8333,238.75,82.995,-98.18,1010.9,0.5,-0.6,yes,yes,yes,300234068766730,SVP-BA,ECCC,RCAF,North
2021-08-26T21:00:00Z,2021,21,0,238.875,238.875,82.9972,-98.16,1011.4,0.5,-1.0,yes,yes,yes,300234068766730,SVP-BA,ECCC,RCAF,North
2021-08-26T22:00:02Z,2021,22,0,238.9167,238.875,82.9972,-98.16,1011.9,0.5,-1.3,yes,yes,yes,300234068766730,SVP-BA,ECCC,RCAF,North
2021-08-26T22:59:57Z,2021,23,0,238.9583,238.875,82.9972,-98.16,1012.2,0.5,-1.5,yes,yes,yes,300234068766730,SVP-BA,ECCC,RCAF,North
2021-08-27T00:00:00Z,2021,0,0,239.0,239.0,82.9996,-98.1556,1012.6,0.5,-1.5,yes,yes,yes,300234068766730,SVP-BA,ECCC,RCAF,North
2021-08-27T01:00:02Z,2021,1,0,239.0417,239.0,82.9996,-98.1556,1012.8,0.4,-1.6,yes,yes,yes,300234068766730,SVP-BA,ECCC,RCAF,North
2021-08-27T01:59:57Z,2021,2,0,239.0833,239.0,82.9996,-98.1556,1013.1,0.4,-1.5,yes,yes,yes,300234068766730,SVP-BA,ECCC,RCAF,North
2021-08-27T03:00:00Z,2021,3,0,239.125,239.125,83.0036,-98.1534,1013.3,0.4,-1.5,yes,yes,yes,300234068766730,SVP-BA,ECCC,RCAF,North
2021-08-27T04:00:02Z,2021,4,0,239.1667,239.125,83.0036,-98.1534,1013.6,0.4,-1.6,yes,yes,yes,300234068766730,SVP-BA,ECCC,RCAF,North
2021-08-27T04:59:57Z,2021,5,0,239.2083,239.125,83.0036,-98.1534,1013.9,0.4,-1.5,yes,yes,yes,300234068766730,SVP-BA,ECCC,RCAF,North
2021-08-27T06:00:00Z,2021,6,0,239.25,239.25,83.0074,-98.1462,1014.3,0.4,-1.5,yes,yes,yes,300234068766730,SVP-BA,ECCC,RCAF,North
2021-08-27T07:00:02Z,2021,7,0,239.2917,239.25,83.0074,-98.1462,1014.6,0.4,-1.5,yes,yes,yes,300234068766730,SVP-BA,ECCC,RCAF,North
2021-08-27T07:59:57Z,2021,8,0,239.3333,239.25,83.0074,-98.1462,1014.6,0.4,-1.5,yes,yes,yes,300234068766730,SVP-BA,ECCC,RCAF,North
2021-08-27T09:00:00Z,2021,9,0,239.375,239.375,83.0088,-98.1442,1014.9,0.4,-1.5,yes,yes,yes,300234068766730,SVP-BA,ECCC,RCAF,North
2021-08-27T10:00:02Z,2021,10,0,239.4167,239.375,83.0088,-98.1442,1015.3,0.4,-1.6,yes,yes,yes,300234068766730,SVP-BA,ECCC,RCAF,North
2021-08-27T10:59:57Z,2021,11,0,239.4583,239.375,83.0088,-98.1442,1015.3,0.4,-1.5,yes,yes,yes,300234068766730,SVP-BA,ECCC,RCAF,North
2021-08-27T12:00:00Z,2021,12,0,239.5,239.5,83.011,-98.1466,1015.3,0.4,-1.4,yes,yes,yes,300234068766730,SVP-BA,ECCC,RCAF,North
2021-08-27T13:00:02Z,2021,13,0,239.5417,239.5,83.011,-98.1466,1015.4,0.4,-1.1,yes,yes,yes,300234068766730,SVP-BA,ECCC,RCAF,North
2021-08-27T13:59:57Z,2021,14,0,239.5833,239.5,83.011,-98.1466,1015.5,0.4,-1.0,yes,yes,yes,300234068766730,SVP-BA,ECCC,RCAF,North
2021-08-27T15:00:00Z,2021,15,0,239.625,239.625,83.0148,-98.1524,1015.4,0.5,-0.9,yes,yes,yes,300234068766730,SVP-BA,ECCC,RCAF,North
2021-08-27T16:00:02Z,2021,16,0,239.6667,239.625,83.0148,-98.1524,1015.3,0.5,-1.0,yes,yes,yes,300234068766730,SVP-BA,ECCC,RCAF,North
2021-08-27T16:59:57Z,2021,17,0,239.7083,239.625,83.0148,-98.1524,1015.2,0.5,-0.7,yes,yes,yes,300234068766730,SVP-BA,ECCC,RCAF,North
2021-08-27T18:00:00Z,2021,18,0,239.75,239.75,83.019,-98.1608,1015.2,0.5,-0.6,yes,yes,yes,300234068766730,SVP-BA,ECCC,RCAF,North
2021-08-27T19:00:02Z,2021,19,0,239.7917,239.75,83.019,-98.1608,1015.3,0.5,-0.7,yes,yes,yes,300234068766730,SVP-BA,ECCC,RCAF,North
2021-08-27T19:59:57Z,2021,20,0,239.8333,239.75,83.019,-98.1608,1015.4,0.5,-1.2,yes,yes,yes,300234068766730,SVP-BA,ECCC,RCAF,North
2021-08-27T21:00:00Z,2021,21,0,239.875,239.875,83.021,-98.1668,1015.4,0.5,-1.5,yes,yes,yes,300234068766730,SVP-BA,ECCC,RCAF,North
2021-08-27T22:00:02Z,2021,22,0,239.9167,239.875,83.021,-98.1668,1015.3,0.5,-1.9,yes,yes,yes,300234068766730,SVP-BA,ECCC,RCAF,North
2021-08-27T22:59:57Z,2021,23,0,239.9583,239.875,83.021,-98.1668,1015.0,0.5,-1.9,yes,yes,yes,300234068766730,SVP-BA,ECCC,RCAF,North
2021-08-28T00:00:00Z,2021,0,0,240.0,240.0,83.0228,-98.1902,1014.7,0.5,-1.8,yes,yes,yes,300234068766730,SVP-BA,ECCC,RCAF,North
2021-08-28T01:00:02Z,2021,1,0,240.0417,240.0,83.0228,-98.1902,1014.6,0.4,-2.3,yes,yes,yes,300234068766730,SVP-BA,ECCC,RCAF,North
2021-08-28T01:59:57Z,2021,2,0,240.0833,240.0,83.0228,-98.1902,1014.2,0.4,-2.8,yes,yes,yes,300234068766730,SVP-BA,ECCC,RCAF,North
2021-08-28T03:00:00Z,2021,3,0,240.125,240.125,83.029,-98.234,1013.9,0.4,-3.0,yes,yes,yes,300234068766730,SVP-BA,ECCC,RCAF,North
2021-08-28T04:00:02Z,2021,4,0,240.1667,240.125,83.029,-98.234,1013.3,0.4,-3.0,yes,yes,yes,300234068766730,SVP-BA,ECCC,RCAF,North
2021-08-28T04:59:57Z,2021,5,0,240.2083,240.125,83.029,-98.234,1013.2,0.4,-3.0,yes,yes,yes,300234068766730,SVP-BA,ECCC,RCAF,North
2021-08-28T06:00:00Z,2021,6,0,240.25,240.25,83.0384,-98.2626,1013.1,0.4,-3.2,yes,yes,yes,300234068766730,SVP-BA,ECCC,RCAF,North
2021-08-28T07:00:02Z,2021,7,0,240.2917,240.25,83.0384,-98.2626,1012.8,0.4,-3.2,yes,yes,yes,300234068766730,SVP-BA,ECCC,RCAF,North
2021-08-28T07:59:57Z,2021,8,0,240.3333,240.25,83.0384,-98.2626,1012.6,0.4,-3.3,yes,yes,yes,300234068766730,SVP-BA,ECCC,RCAF,North
2021-08-28T09:00:00Z,2021,9,0,240.375,240.375,83.0466,-98.2652,1012.4,0.4,-3.7,yes,yes,yes,300234068766730,SVP-BA,ECCC,RCAF,North
2021-08-28T10:00:02Z,2021,10,0,240.4167,240.375,83.0466,-98.2652,1012.3,0.4,-4.5,yes,yes,yes,300234068766730,SVP-BA,ECCC,RCAF,North
2021-08-28T10:59:57Z,2021,11,0,240.4583,240.375,83.0466,-98.2652,1012.1,0.4,-5.4,yes,yes,yes,300234068766730,SVP-BA,ECCC,RCAF,North
2021-08-28T12:00:00Z,2021,12,0,240.5,240.5,83.0542,-98.264,1011.7,0.4,-5.4,yes,yes,yes,300234068766730,SVP-BA,ECCC,RCAF,North